�N����,����,�~����,�C��,���x,�C��,����,���ϕ���,�ő�u�ԕ���,�ő厞����,���˗�,�I�_���x,�n�����x,�ő啗���N��,DTYPE
"23/06/04","00:10",0.0,13.6,90.4,1004.5,283.2,1.3,2.7,311.0,0.00,12.1,19.2,"00:08:54",1
"23/06/04","00:20",0.0,13.8,90.7,1004.3,304.9,2.1,2.8,336.0,0.00,12.3,19.1,"00:18:44",1
"23/06/04","00:30",0.0,13.9,91.1,1004.8,298.3,2.1,3.6,334.4,0.00,12.5,19.0,"00:29:42",1
"23/06/04","00:40",0.0,13.9,91.2,1004.5,301.5,2.0,2.8,318.8,0.00,12.5,19.0,"00:33:46",1
"23/06/04","00:50",0.0,13.7,91.4,1004.5,292.8,1.6,2.6,317.6,0.00,12.4,19.1,"00:40:08",1
"23/06/04","01:00",0.0,13.5,91.4,1004.5,293.8,1.1,1.8,309.0,0.00,12.2,18.9,"00:52:00",1
"23/06/04","01:10",0.0,13.4,91.8,1004.8,313.7,1.6,2.0,329.5,0.00,12.1,18.8,"01:08:18",1
"23/06/04","01:20",0.0,13.3,92.0,1004.8,324.2,1.6,2.1,320.0,0.00,12.1,18.9,"01:12:06",1
"23/06/04","01:30",0.0,13.1,92.2,1004.8,301.0,1.5,1.9,309.3,0.00,11.9,18.7,"01:25:56",1
"23/06/04","01:40",0.0,13.0,92.5,1004.8,309.6,1.6,2.0,316.4,0.00,11.9,18.7,"01:32:54",1
"23/06/04","01:50",0.0,12.8,92.7,1004.8,304.4,1.3,1.7,312.5,0.00,11.7,18.8,"01:47:44",1
"23/06/04","02:00",0.0,12.9,93.0,1004.8,294.1,1.7,2.1,303.8,0.00,11.8,18.7,"01:52:40",1
"23/06/04","02:10",0.0,13.0,93.2,1004.3,289.8,1.7,2.8,281.8,0.00,12.0,18.8,"02:04:18",1
"23/06/04","02:20",0.0,12.9,93.4,1004.3,315.1,1.7,2.7,322.7,0.00,11.9,18.6,"02:17:56",1
"23/06/04","02:30",0.0,13.1,93.5,1004.5,305.7,2.1,3.4,318.4,0.00,12.1,18.5,"02:24:48",1
"23/06/04","02:40",0.0,13.0,93.6,1004.3,294.4,2.0,2.8,318.5,0.00,12.0,18.6,"02:39:18",1
"23/06/04","02:50",0.0,13.0,93.6,1004.5,319.9,2.1,3.4,316.1,0.00,12.0,18.3,"02:40:40",1
"23/06/04","03:00",0.0,13.0,93.6,1004.3,327.7,1.6,2.4,334.6,0.00,12.0,18.6,"02:58:56",1
"23/06/04","03:10",0.0,13.1,93.7,1004.1,330.3,2.1,3.2,333.7,0.00,12.1,18.3,"03:05:18",1
"23/06/04","03:20",0.0,13.0,93.7,1004.1,320.7,2.2,3.6,334.5,0.00,12.0,18.3,"03:10:02",1
"23/06/04","03:30",0.0,13.0,93.7,1004.1,314.7,2.1,2.9,315.4,0.00,12.0,18.2,"03:27:40",1
"23/06/04","03:40",0.0,12.9,93.7,1004.1,321.3,2.5,3.2,332.1,0.00,12.0,18.2,"03:39:54",1
"23/06/04","03:50",0.0,12.8,93.7,1004.3,323.6,2.1,3.6,339.9,0.00,11.9,18.3,"03:40:32",1
"23/06/04","04:00",0.0,12.9,93.6,1004.3,325.5,2.5,4.2,323.2,0.00,11.9,18.3,"03:53:46",1
"23/06/04","04:10",0.0,12.8,93.5,1004.5,325.4,2.5,3.6,335.1,0.00,11.8,18.2,"04:05:14",1
"23/06/04","04:20",0.0,13.0,93.3,1004.3,318.7,2.7,4.1,334.1,0.00,12.0,18.1,"04:18:06",1
"23/06/04","04:30",0.0,13.0,93.1,1004.5,321.9,2.5,3.5,313.1,0.00,12.0,18.2,"04:27:12",1
"23/06/04","04:40",0.0,13.0,92.9,1004.3,319.8,2.7,4.3,311.8,0.00,11.9,18.0,"04:31:20",1
"23/06/04","04:50",0.0,12.8,92.8,1005.0,317.7,1.8,2.6,323.8,0.00,11.7,18.1,"04:44:40",1
"23/06/04","05:00",0.0,12.5,92.8,1005.2,307.0,1.7,2.2,310.7,0.00,11.4,18.2,"04:52:00",1
"23/06/04","05:10",0.0,12.5,93.0,1005.2,305.8,2.3,3.4,325.6,0.00,11.4,17.9,"05:05:46",1
"23/06/04","05:20",0.0,12.5,93.0,1005.0,316.7,2.7,4.1,318.7,0.00,11.4,18.0,"05:10:44",1
"23/06/04","05:30",0.0,12.4,93.0,1005.0,301.4,2.3,3.3,308.6,0.00,11.3,17.9,"05:23:10",1
"23/06/04","05:40",0.0,12.2,93.0,1005.0,291.4,1.7,2.5,322.2,0.00,11.1,17.8,"05:37:54",1
"23/06/04","05:50",0.0,12.0,93.3,1005.2,300.2,1.8,3.2,310.8,0.00,11.0,17.6,"05:47:50",1
"23/06/04","06:00",0.0,12.1,93.5,1005.5,317.1,2.5,3.2,321.9,0.00,11.1,17.9,"05:53:42",1
"23/06/04","06:10",0.0,12.0,93.6,1005.2,310.0,2.2,2.7,307.6,0.00,11.0,17.8,"06:05:46",1
"23/06/04","06:20",0.0,12.0,93.8,1005.5,298.8,2.0,2.5,310.4,0.00,11.1,17.9,"06:13:18",1
"23/06/04","06:30",0.0,12.1,94.0,1006.0,288.4,1.6,2.5,306.9,0.01,11.2,17.7,"06:22:22",1
"23/06/04","06:40",0.0,12.5,94.1,1005.7,284.7,1.2,1.8,308.0,0.02,11.6,17.7,"06:32:16",1
"23/06/04","06:50",0.0,12.7,94.2,1006.0,301.9,1.6,2.5,323.0,0.02,11.8,17.9,"06:49:04",1
"23/06/04","07:00",0.0,13.1,94.1,1006.2,309.4,1.8,2.5,317.4,0.04,12.2,17.6,"06:52:32",1
"23/06/04","07:10",0.0,13.6,94.2,1006.2,303.1,1.7,2.4,309.2,0.06,12.7,17.8,"07:02:58",1
"23/06/04","07:20",0.0,15.0,93.4,1006.2,305.5,0.8,1.9,316.3,0.09,14.0,17.6,"07:10:08",1
"23/06/04","07:30",0.0,16.0,93.0,1006.4,284.8,0.3,0.8,255.5,0.12,14.9,17.5,"07:21:12",1
"23/06/04","07:40",0.0,16.6,91.6,1006.4,330.2,0.3,1.0,315.0,0.14,15.3,17.7,"07:33:52",1
"23/06/04","07:50",0.0,17.1,90.7,1006.7,306.8,0.5,1.0,316.6,0.17,15.6,17.6,"07:45:44",1
"23/06/04","08:00",0.0,17.6,88.7,1006.9,316.0,0.5,1.3,319.6,0.19,15.8,17.6,"07:51:20",1
"23/06/04","08:10",0.0,17.6,85.5,1006.9,252.6,0.7,1.7,310.5,0.21,15.2,17.8,"08:01:52",1
"23/06/04","08:20",0.0,18.4,82.5,1006.9,239.8,0.3,1.0,191.9,0.24,15.4,17.5,"08:16:00",1
"23/06/04","08:30",0.0,18.6,79.4,1006.4,195.7,0.8,1.6,148.6,0.26,15.0,17.5,"08:21:28",1
"23/06/04","08:40",0.0,19.4,76.9,1006.7,113.4,0.5,1.8,133.7,0.29,15.3,17.7,"08:37:52",1
"23/06/04","08:50",0.0,19.7,74.2,1006.0,224.6,0.7,1.7,236.6,0.31,15.0,17.5,"08:46:08",1
"23/06/04","09:00",0.0,20.0,72.2,1006.0,147.0,1.0,2.0,133.0,0.33,14.9,17.6,"08:54:32",1
"23/06/04","09:10",0.0,20.2,72.1,1006.2,201.5,1.2,2.9,239.1,0.35,15.1,17.7,"09:02:24",1
"23/06/04","09:20",0.0,20.4,70.2,1006.0,207.9,1.5,2.9,218.9,0.38,14.8,18.0,"09:18:16",1
"23/06/04","09:30",0.0,20.9,69.9,1005.7,141.6,1.1,3.3,225.5,0.41,15.2,17.8,"09:20:08",1
"23/06/04","09:40",0.0,21.9,67.6,1005.5,157.5,0.8,2.7,199.6,0.43,15.7,17.7,"09:37:36",1
"23/06/04","09:50",0.0,22.4,65.1,1005.2,306.5,0.6,1.3,354.0,0.44,15.6,17.9,"09:48:08",1
"23/06/04","10:00",0.0,22.2,65.2,1005.2,174.8,1.5,2.9,226.3,0.47,15.4,17.9,"09:57:52",1
"23/06/04","10:10",0.0,23.0,64.3,1004.8,142.7,0.7,1.9,125.2,0.49,15.9,17.9,"10:02:08",1
"23/06/04","10:20",0.0,23.2,61.9,1004.1,137.4,1.2,3.3,155.9,0.50,15.5,18.2,"10:19:20",1
"23/06/04","10:30",0.0,22.8,62.5,1004.3,180.8,1.7,3.1,168.9,0.52,15.3,18.0,"10:28:16",1
"23/06/04","10:40",0.0,23.4,62.5,1004.1,161.0,1.3,2.7,179.9,0.52,15.9,18.1,"10:34:40",1
"23/06/04","10:50",0.0,24.0,60.5,1004.5,140.7,1.2,3.5,150.8,0.53,15.9,18.2,"10:49:28",1
"23/06/04","11:00",0.0,24.0,62.1,1004.3,158.3,1.6,3.4,164.5,0.54,16.3,18.3,"10:54:40",1
"23/06/04","11:10",0.0,24.2,61.0,1004.3,189.7,1.5,3.2,207.7,0.55,16.2,18.3,"11:06:48",1
"23/06/04","11:20",0.0,24.5,58.5,1004.3,153.7,1.3,3.1,153.6,0.56,15.9,18.3,"11:17:04",1
"23/06/04","11:30",0.0,25.2,59.9,1004.8,140.7,1.2,3.2,213.6,0.57,16.9,18.6,"11:24:56",1
"23/06/04","11:40",0.0,25.5,56.1,1004.5,134.4,1.2,2.7,116.0,0.59,16.2,18.7,"11:39:20",1
"23/06/04","11:50",0.0,25.9,56.6,1004.3,130.4,1.3,3.3,142.4,0.61,16.7,18.7,"11:46:32",1
"23/06/04","12:00",0.0,25.4,55.3,1004.3,151.6,1.8,4.8,230.5,0.57,15.8,18.8,"11:53:12",1
"23/06/04","12:10",0.0,25.8,56.2,1003.8,158.7,1.3,3.6,152.4,0.53,16.5,18.8,"12:04:24",1
"23/06/04","12:20",0.0,26.3,51.1,1003.8,114.5,1.1,4.0,114.2,0.50,15.4,18.9,"12:15:12",1
"23/06/04","12:30",0.0,25.8,51.5,1003.8,140.5,1.7,3.4,147.8,0.43,15.1,19.2,"12:29:36",1
"23/06/04","12:40",0.0,25.8,52.7,1003.8,152.6,1.5,3.5,132.8,0.36,15.5,19.0,"12:39:44",1
"23/06/04","12:50",0.0,25.8,52.4,1003.4,148.1,1.3,3.1,198.2,0.32,15.4,19.2,"12:40:48",1
"23/06/04","13:00",0.0,26.1,51.0,1003.1,137.9,1.2,2.7,141.5,0.30,15.2,19.4,"12:54:32",1
"23/06/04","13:10",0.0,26.3,50.4,1003.1,159.3,1.3,2.8,133.2,0.32,15.2,19.3,"13:07:04",1
"23/06/04","13:20",0.0,26.0,52.9,1002.9,170.4,1.3,3.1,180.1,0.27,15.7,19.3,"13:18:24",1
"23/06/04","13:30",0.0,26.2,48.9,1002.9,167.5,1.0,2.2,154.1,0.26,14.7,19.7,"13:22:08",1
"23/06/04","13:40",0.0,27.1,48.1,1002.9,245.4,0.5,1.6,107.8,0.24,15.2,19.4,"13:39:20",1
"23/06/04","13:50",0.0,27.1,48.0,1002.9,71.4,0.6,1.8,93.6,0.23,15.2,19.7,"13:41:44",1
"23/06/04","14:00",0.0,27.1,46.5,1002.9,237.2,1.0,3.5,241.9,0.26,14.7,19.6,"13:56:16",1
"23/06/04","14:10",0.0,27.0,44.7,1002.6,264.8,1.1,2.8,205.8,0.28,14.0,19.7,"14:06:16",1
"23/06/04","14:20",0.0,27.2,45.0,1002.9,202.2,1.0,2.1,230.9,0.30,14.3,19.6,"14:12:08",1
"23/06/04","14:30",0.0,27.3,44.7,1003.1,253.9,1.2,3.2,238.0,0.29,14.3,19.7,"14:29:12",1
"23/06/04","14:40",0.0,26.9,42.5,1002.9,251.3,1.6,4.7,235.0,0.29,13.1,19.7,"14:36:08",1
"23/06/04","14:50",0.0,26.7,42.9,1002.4,231.0,2.3,5.2,201.3,0.30,13.1,19.8,"14:43:04",1
"23/06/04","15:00",0.0,26.7,41.0,1002.4,239.0,2.3,4.2,235.8,0.30,12.4,19.8,"14:53:28",1
"23/06/04","15:10",0.0,26.7,40.6,1002.2,246.9,2.1,4.0,240.8,0.28,12.3,19.9,"15:03:20",1
"23/06/04","15:20",0.0,27.0,43.0,1002.2,246.6,2.1,4.3,243.5,0.32,13.4,19.9,"15:15:28",1
"23/06/04","15:30",0.0,27.2,42.3,1002.2,235.5,2.6,6.8,220.7,0.37,13.3,20.1,"15:25:52",1
"23/06/04","15:40",0.0,27.6,42.5,1002.2,230.3,2.2,4.1,250.6,0.38,13.8,19.9,"15:38:40",1
"23/06/04","15:50",0.0,27.6,41.6,1002.4,296.9,1.8,3.9,347.8,0.40,13.4,19.9,"15:49:52",1
"23/06/04","16:00",0.0,27.9,42.6,1002.4,327.1,2.0,5.9,319.6,0.38,14.1,20.1,"15:51:20",1
"23/06/04","16:10",0.0,27.6,42.1,1002.4,315.3,1.6,4.0,16.4,0.31,13.6,20.0,"16:07:40",1
"23/06/04","16:20",0.0,27.4,44.4,1002.2,313.8,1.6,2.8,340.9,0.29,14.3,20.2,"16:16:24",1
"23/06/04","16:30",0.0,27.4,45.4,1001.9,231.4,2.1,5.2,219.0,0.29,14.6,20.3,"16:24:32",1
"23/06/04","16:40",0.0,27.8,43.6,1001.7,307.4,1.5,4.1,326.8,0.30,14.3,20.2,"16:31:04",1
"23/06/04","16:50",0.0,28.2,42.7,1001.9,275.8,1.2,3.5,327.2,0.28,14.4,20.3,"16:48:24",1
"23/06/04","17:00",0.0,27.8,41.3,1001.7,290.1,1.7,4.4,10.7,0.25,13.5,20.4,"16:57:28",1
"23/06/04","17:10",0.0,27.4,42.0,1001.7,316.2,2.5,5.8,342.5,0.22,13.4,20.5,"17:00:40",1
"23/06/04","17:20",0.0,27.3,43.1,1001.0,297.1,2.0,6.3,333.2,0.19,13.7,20.7,"17:17:52",1
"23/06/04","17:30",0.0,27.2,43.2,1001.0,256.0,2.1,4.9,240.4,0.16,13.7,20.4,"17:20:24",1
"23/06/04","17:40",0.0,27.6,44.7,1001.2,282.3,1.2,2.6,320.3,0.12,14.5,20.3,"17:34:16",1
"23/06/04","17:50",0.0,27.4,44.6,1001.5,244.7,1.6,3.6,239.4,0.04,14.3,20.5,"17:48:16",1
"23/06/04","18:00",0.0,26.8,45.7,1000.8,237.5,2.2,5.7,250.7,0.03,14.2,20.5,"17:51:04",1
"23/06/04","18:10",0.0,26.3,47.2,1001.5,228.3,2.1,4.9,226.0,0.05,14.2,20.4,"18:06:32",1
"23/06/04","18:20",0.0,26.1,47.1,1001.5,257.4,1.6,3.4,239.0,0.05,14.0,20.6,"18:11:20",1
"23/06/04","18:30",0.0,25.6,47.7,1001.7,254.2,2.0,3.7,242.0,0.04,13.7,20.7,"18:25:44",1
"23/06/04","18:40",0.0,25.6,48.1,1001.7,253.3,2.1,4.4,240.2,0.04,13.9,20.6,"18:33:36",1
"23/06/04","18:50",0.0,25.2,49.1,1002.2,262.2,1.7,3.7,272.4,0.03,13.8,20.4,"18:45:04",1
"23/06/04","19:00",0.0,25.0,48.7,1002.2,263.7,2.5,5.1,225.7,0.02,13.5,20.7,"18:58:32",1
"23/06/04","19:10",0.0,24.7,49.5,1002.2,281.7,2.0,3.7,343.7,0.01,13.5,20.5,"19:07:28",1
"23/06/04","19:20",0.0,24.6,50.1,1002.4,304.7,1.7,4.8,314.3,0.01,13.6,20.3,"19:13:12",1
"23/06/04","19:30",0.0,24.4,50.8,1002.4,309.7,1.5,3.9,335.4,0.00,13.6,20.4,"19:24:48",1
"23/06/04","19:40",0.0,24.2,53.0,1002.9,313.5,1.8,2.9,312.0,0.00,14.1,20.5,"19:39:04",1
"23/06/04","19:50",0.0,23.5,57.3,1003.1,335.1,2.1,3.1,318.0,0.00,14.6,20.4,"19:43:52",1
"23/06/04","20:00",0.0,22.7,61.5,1003.1,335.3,1.8,2.7,339.2,0.00,15.0,20.2,"19:57:36",1
"23/06/04","20:10",0.0,21.9,63.6,1003.1,326.6,1.8,2.9,330.0,0.00,14.7,20.4,"20:01:04",1
"23/06/04","20:20",0.0,21.6,64.6,1003.4,322.2,1.7,2.5,310.8,0.00,14.7,20.4,"20:18:40",1
"23/06/04","20:30",0.0,21.3,66.2,1003.1,325.6,1.7,3.2,340.2,0.00,14.8,20.3,"20:29:44",1
"23/06/04","20:40",0.0,21.0,67.4,1003.6,323.3,2.0,2.9,317.7,0.00,14.8,20.3,"20:35:04",1
"23/06/04","20:50",0.0,20.9,67.9,1003.8,320.0,2.0,2.9,347.5,0.00,14.8,20.3,"20:48:56",1
"23/06/04","21:00",0.0,20.7,69.4,1003.6,340.8,2.1,2.9,346.3,0.00,14.9,20.4,"20:52:48",1
"23/06/04","21:10",0.0,20.3,70.7,1004.1,341.5,2.0,3.1,340.6,0.00,14.8,20.3,"21:02:48",1
"23/06/04","21:20",0.0,20.0,72.0,1004.1,336.0,1.7,2.7,339.5,0.00,14.8,20.2,"21:16:00",1
"23/06/04","21:30",0.0,19.7,73.0,1004.5,298.8,1.5,2.2,315.0,0.00,14.8,20.1,"21:22:24",1
"23/06/04","21:40",0.0,19.5,73.6,1004.8,262.2,1.2,1.8,258.4,0.00,14.7,20.0,"21:37:12",1
"23/06/04","21:50",0.0,19.5,73.7,1004.5,285.7,1.1,1.7,270.8,0.00,14.7,20.0,"21:45:20",1
"23/06/04","22:00",0.0,19.4,73.9,1004.8,321.9,1.2,1.8,343.6,0.00,14.7,20.1,"21:50:08",1
"23/06/04","22:10",0.0,19.5,75.4,1004.8,330.8,1.3,2.0,338.7,0.00,15.1,20.1,"22:05:44",1
"23/06/04","22:20",0.0,19.0,77.0,1004.8,318.3,1.7,2.4,327.0,0.00,14.9,19.9,"22:12:00",1
"23/06/04","22:30",0.0,18.8,77.6,1005.2,289.8,0.7,1.3,313.8,0.00,14.8,20.0,"22:24:08",1
"23/06/04","22:40",0.0,18.7,77.8,1005.2,295.9,1.1,2.1,312.7,0.00,14.8,19.9,"22:36:48",1
"23/06/04","22:50",0.0,18.8,78.8,1005.2,338.7,1.5,2.4,309.4,0.00,15.1,19.8,"22:40:16",1
"23/06/04","23:00",0.0,18.7,79.9,1005.5,328.1,1.3,2.0,341.8,0.00,15.2,19.8,"22:50:24",1
"23/06/04","23:10",0.0,18.4,80.3,1005.5,288.8,1.1,3.1,330.8,0.00,15.0,19.8,"23:09:04",1
"23/06/04","23:20",0.0,18.6,79.9,1005.7,299.1,1.3,2.0,328.8,0.00,15.1,19.7,"23:10:08",1
"23/06/04","23:30",0.0,18.8,79.2,1005.7,282.4,1.0,1.8,267.7,0.00,15.2,19.8,"23:21:44",1
"23/06/04","23:40",0.0,18.9,78.8,1005.7,286.1,1.5,2.2,333.2,0.00,15.2,19.7,"23:39:12",1
"23/06/04","23:50",0.0,18.9,78.0,1006.0,319.5,1.8,3.6,340.1,0.00,15.0,19.7,"23:48:56",1
"23/06/04","24:00",0.0,19.1,77.4,1005.5,287.6,1.6,2.7,305.0,0.00,15.1,19.7,"23:50:48",1
